Redwood City, CA

4:56 AM PDT on September 30, 2016 (GMT -0700)
San Carlos

Weather History for KSQL - November, 2013

Change the Weather History Date:

Friday, November 1, 2013

  Actual Average Record
Temperature  
Mean Temperature 60 °F -  
Max Temperature 71 °F 71 °F 86 °F (1967)
Min Temperature 48 °F 44 °F 33 °F (2008)
Degree Days  
Heating Degree Days 6    
Growing Degree Days 10 (Base 50)    
Moisture  
Dew Point 44 °F    
Average Humidity 66    
Maximum Humidity 82    
Minimum Humidity 31    
Precipitation  
Precipitation 0.00 in - - ()
Sea Level Pressure  
Sea Level Pressure 30.09 in    
Wind  
Wind Speed 1 mph (NNE)    
Max Wind Speed 7 mph    
Max Gust Speed -    
Visibility 10 miles    
Events      
Averages and records for this station are not official NWS values.
T = Trace of Precipitation, MM = Missing Value Source: NWS Daily Summary

Daily Weather History Graph

Daily Weather History Graph

Search for Another Location

Airport or City:

Trip Planner

Search our weather history database for the weather conditions in past years. The results will help you decide how hot, cold, wet, or windy it might be!

Date:

Astronomy

Nov. 01, 2013 Rise Set
Actual Time 7:34 AM PDT 6:10 PM PDT
Civil Twilight 7:07 AM PDT 6:37 PM PDT
Nautical Twilight 6:36 AM PDT 7:08 PM PDT
Astronomical Twilight 6:05 AM PDT 7:38 PM PDT
Moon 5:34 AM PDT (11/1) 5:05 PM PDT (11/1)
Length of Visible Light 11h 30m
Length of Day
10h 36m
Waning Crescent, 4% of the Moon is Illuminated
Nov 1
Waning Crescent
Nov 3
New
Nov 9
First Quarter
Nov 17
Full
Nov 25
Last Quarter

Hourly Weather History & Observations

Time (PDT) Temp. Dew Point Humidity Pressure Visibility Wind Dir Wind Speed Gust Speed Precip Events Conditions
12:15 AM 53.6 °F 42.8 °F 67% 30.11 in 10.0 mi Calm Calm - N/A   Clear
12:35 AM 53.6 °F 42.8 °F 67% 30.11 in 10.0 mi Calm Calm - N/A   Clear
12:55 AM 53.6 °F 41.0 °F 62% 30.11 in 10.0 mi Calm Calm - N/A   Clear
1:15 AM 53.6 °F 41.0 °F 62% 30.11 in 10.0 mi Calm Calm - N/A   Clear
1:35 AM 53.6 °F 42.8 °F 67% 30.11 in 10.0 mi Calm Calm - N/A   Clear
1:55 AM 51.8 °F 41.0 °F 67% 30.12 in 10.0 mi Calm Calm - N/A   Clear
2:15 AM 51.8 °F 41.0 °F 67% 30.12 in 10.0 mi Calm Calm - N/A   Clear
2:35 AM 50.0 °F 41.0 °F 71% 30.12 in 10.0 mi Calm Calm - N/A   Clear
2:55 AM 50.0 °F 41.0 °F 71% 30.12 in 10.0 mi Calm Calm - N/A   Clear
3:15 AM 50.0 °F 41.0 °F 71% 30.11 in 10.0 mi Calm Calm - N/A   Clear
3:35 AM 50.0 °F 41.0 °F 71% 30.11 in 10.0 mi Calm Calm - N/A   Clear
3:55 AM 50.0 °F 41.0 °F 71% 30.11 in 10.0 mi Calm Calm - N/A   Clear
4:15 AM 50.0 °F 42.8 °F 76% 30.11 in 10.0 mi Calm Calm - N/A   Clear
4:35 AM 50.0 °F 42.8 °F 76% 30.11 in 10.0 mi Calm Calm - N/A   Clear
4:55 AM 48.2 °F 42.8 °F 82% 30.11 in 10.0 mi Calm Calm - N/A   Clear
5:15 AM 50.0 °F 42.8 °F 76% 30.12 in 10.0 mi Calm Calm - N/A   Clear
5:35 AM 50.0 °F 42.8 °F 76% 30.12 in 10.0 mi Calm Calm - N/A   Clear
5:55 AM 50.0 °F 42.8 °F 76% 30.13 in 10.0 mi Calm Calm - N/A   Clear
6:15 AM 48.2 °F 41.0 °F 76% 30.13 in 10.0 mi Calm Calm - N/A   Clear
6:35 AM 50.0 °F 42.8 °F 76% 30.13 in 10.0 mi Calm Calm - N/A   Clear
6:50 AM 48.2 °F 42.8 °F 82% 30.13 in 10.0 mi Calm Calm - N/A   Clear
6:55 AM 48.2 °F 42.8 °F 82% 30.13 in 10.0 mi Calm Calm - N/A   Clear
7:51 AM 50.0 °F 44.6 °F 82% 30.13 in 10.0 mi Calm Calm - N/A   Clear
9:51 AM 57.2 °F 46.4 °F 67% 30.15 in 10.0 mi Calm Calm - N/A   Clear
10:48 AM 59.0 °F 48.2 °F 67% 30.15 in 10.0 mi NNE 3.5 mph - N/A   Clear
11:48 AM 62.6 °F 46.4 °F 55% 30.13 in 10.0 mi NE 4.6 mph - N/A   Clear
12:47 PM 64.4 °F 46.4 °F 52% 30.11 in 10.0 mi Calm Calm - N/A   Clear
1:50 PM 66.2 °F 51.8 °F 60% 30.08 in 10.0 mi ENE 3.5 mph - N/A   Clear
2:50 PM 68.0 °F 50.0 °F 52% 30.06 in 10.0 mi NNE 6.9 mph - N/A   Clear
3:53 PM 68.0 °F 48.2 °F 49% 30.04 in 10.0 mi NNE 6.9 mph - N/A   Clear
4:47 PM 71.6 °F 39.2 °F 31% 30.03 in 10.0 mi North 5.8 mph - N/A   Clear
6:55 PM 66.2 °F 46.4 °F 49% 30.03 in 10.0 mi WNW 6.9 mph - N/A   Clear
7:55 PM 64.4 °F 44.6 °F 49% 30.03 in 10.0 mi Calm Calm - N/A   Clear
8:50 PM 60.8 °F 44.6 °F 55% 30.02 in 10.0 mi Calm Calm - N/A   Clear
9:15 PM 59.0 °F 44.6 °F 59% 30.02 in 10.0 mi Calm Calm - N/A   Clear
9:35 PM 59.0 °F 44.6 °F 59% 30.02 in 10.0 mi Calm Calm - N/A   Clear
9:55 PM 59.0 °F 44.6 °F 59% 30.03 in 10.0 mi Calm Calm - N/A   Clear
10:15 PM 57.2 °F 44.6 °F 63% 30.03 in 10.0 mi Calm Calm - N/A   Clear
10:35 PM 57.2 °F 48.2 °F 72% 30.03 in 10.0 mi Calm Calm - N/A   Clear
10:55 PM 57.2 °F 48.2 °F 72% 30.04 in 10.0 mi North - - N/A   Clear
11:15 PM 57.2 °F 46.4 °F 67% 30.03 in 10.0 mi SSE 3.5 mph - N/A   Clear
11:35 PM 55.4 °F 44.6 °F 67% 30.03 in 10.0 mi Calm Calm - N/A   Clear
11:55 PM 55.4 °F 44.6 °F 67% 30.04 in 10.0 mi Calm Calm - N/A   Clear